Probability
10 0 0 6 6 3 0 0 0 0 0 3 3 0 3 6 6 6 19 19 45 55 71 87 87 90 90 84 81 81 81 81 77 77 77 71 77 77 77 71 68 68 68 58 61 61 65 71 61
0 0 0 3 10 0 0 0 0 0 3 3 0 0 3 19 39 32 23 26 39 42 58 74 84 84 90 81 77 74 77 81 74 74 77 74 68 68 71 65 58 61 65 65 58 58 71 68 68
0 0 0 3 6 0 0 0 0 0 0 0 3 10 10 26 35 39 35 29 39 42 58 74 84 77 87 77 77 74 71 71 68 71 74 71 68 71 68 68 61 58 55 58 61 55 61 68 65
3 3 0 0 0 0 0 0 0 0 0 3 10 19 19 19 32 39 32 32 35 45 55 77 84 84 84 77 74 74 74 74 71 68 71 71 68 74 68 61 61 55 52 48 55 58 61 61 61
0 0 3 0 0 0 0 0 0 0 0 3 13 19 13 19 35 39 26 32 29 35 61 71 81 81 74 71 71 74 74 71 71 74 68 68 65 65 71 71 52 48 45 52 55 58 61 61 65
0 0 0 0 0 0 0 0 0 3 3 16 16 16 13 29 39 29 26 32 23 35 55 68 74 77 77 74 68 68 68 68 71 71 71 71 68 61 61 61 55 65 58 55 58 65 65 65 61
0 0 0 0 0 0 0 0 0 0 3 13 19 19 13 19 32 32 29 29 26 35 52 61 65 65 71 65 68 65 68 68 68 71 71 68 65 65 68 58 61 61 58 65 65 71 71 65 65
0 0 0 0 0 0 0 0 0 0 10 16 19 16 13 19 19 35 29 26 29 29 45 55 55 58 58 61 65 68 68 65 65 65 61 65 77 71 68 58 61 61 55 65 65 71 58 58 65
0 0 0 0 0 0 0 0 6 3 16 19 23 23 16 19 29 39 29 23 23 29 39 35 39 42 52 52 61 61 61 68 58 58 58 58 39 32 45 52 55 61 65 68 65 65 65 58 52
0 0 0 0 0 0 0 0 6 6 13 16 23 19 19 23 29 26 32 26 19 19 29 35 39 35 35 39 39 39 42 42 32 29 35 19 16 16 26 39 52 61 65 61 68 58 61 39 16
0 0 0 0 0 0 0 3 6 10 10 16 23 16 19 23 26 26 29 32 26 23 26 32 39 26 23 19 26 29 29 26 23 26 19 10 10 10 13 23 29 39 45 39 39 35 26 16 16
0 0 0 0 0 0 3 3 6 6 10 13 23 16 19 19 23 23 26 23 29 29 35 26 23 16 13 19 26 26 23 23 16 13 10 6 10 6 10 10 13 16 6 10 23 13 13 16 13
0 0 0 0 0 3 3 3 10 10 13 23 23 13 16 19 13 23 23 23 26 23 32 26 26 23 16 16 26 23 16 16 16 13 10 10 10 10 10 10 10 10 6 6 6 6 6 6 6
0 0 0 0 0 3 3 10 10 13 19 29 19 10 13 10 16 19 23 23 23 23 29 29 26 23 16 13 19 19 16 16 16 13 13 10 10 10 10 13 13 10 13 16 13 0 6 3 3
0 0 0 0 0 0 0 6 13 13 16 23 23 10 13 13 10 13 16 16 19 26 19 23 23 23 16 13 19 16 16 16 13 13 13 6 10 6 10 10 10 10 6 10 6 3 6 6 6
0 0 0 0 0 0 0 3 6 10 16 19 19 13 10 13 6 13 10 16 23 19 23 29 29 29 16 19 19 16 13 16 13 13 16 10 10 13 13 13 13 10 6 6 3 3 6 3 3
0 0 0 0 0 0 0 3 6 10 10 16 13 13 10 10 13 13 19 16 19 23 19 26 26 26 19 23 23 23 19 13 13 13 19 16 19 16 13 13 13 13 13 13 13 3 3 3 6
0 0 0 3 0 0 0 0 6 10 10 13 6 13 13 13 13 16 23 26 26 23 29 29 32 26 23 26 23 16 16 13 13 16 16 16 23 16 13 13 16 16 10 10 10 6 6 10 10
0 0 3 0 0 0 0 0 6 3 6 10 10 13 10 10 10 16 26 32 26 26 26 29 29 32 32 23 16 16 16 13 13 16 16 16 19 13 10 13 13 10 10 6 13 13 10 10 10
3 0 0 0 0 0 0 6 6 3 10 6 10 10 10 13 10 13 29 35 39 32 29 29 29 29 26 23 23 19 13 13 16 16 16 13 16 16 13 10 13 6 6 6 10 10 6 6 10
0 0 0 0 0 0 3 3 3 6 3 3 3 10 10 13 16 23 23 35 39 32 32 35 29 23 26 19 23 26 19 13 19 13 13 16 13 16 13 10 6 10 6 6 10 6 6 6 6
0 0 0 0 0 0 0 0 3 6 6 6 3 10 13 16 19 23 26 32 35 32 32 32 29 26 26 26 23 23 23 19 23 16 16 16 13 13 10 6 6 6 6 6 13 10 6 10 10
0 0 0 0 0 0 0 0 0 3 6 10 3 13 13 13 19 26 29 35 39 39 35 32 29 26 29 26 23 19 19 19 10 13 16 16 10 16 16 6 10 10 10 10 10 10 3 3 6
0 0 0 0 0 0 0 0 0 3 6 10 6 13 10 23 32 29 26 32 39 42 42 42 39 32 32 29 23 19 16 19 16 16 16 13 13 16 16 16 13 10 10 13 10 6 10 10 6
0 0 0 0 0 0 0 0 0 3 6 6 6 10 6 16 23 26 26 26 42 42 42 42 35 35 39 32 26 26 19 19 13 16 13 10 10 10 13 16 10 10 13 16 13 10 6 10 13
0 0 0 0 0 0 0 0 6 6 6 6 3 6 6 13 19 23 19 23 32 39 42 42 39 39 35 29 26 23 29 19 16 13 16 10 10 10 10 10 10 10 10 13 13 13 13 13 13
0 0 0 0 0 0 0 3 6 3 6 6 3 10 10 10 19 19 19 23 26 32 39 35 35 32 35 32 32 26 23 19 13 13 13 13 10 10 10 10 13 13 10 13 10 10 13 13 10
0 0 0 0 0 0 0 0 6 3 3 3 6 10 13 16 16 16 19 19 26 26 32 35 29 35 32 35 35 35 23 19 16 16 13 13 13 13 13 13 13 13 13 16 13 10 13 13 10
0 0 0 0 0 0 0 0 3 3 3 3 3 6 13 13 13 19 23 23 23 23 23 29 35 35 35 29 29 29 29 16 16 13 13 10 10 10 13 13 13 13 13 13 13 13 13 10 10
0 0 0 0 0 0 0 0 0 3 3 0 3 3 3 10 10 13 19 23 23 16 23 23 23 29 32 32 26 26 23 23 19 16 13 10 10 10 10 13 10 6 10 13 13 13 13 13 10
Height
5914 5914 5915 5915 5915 5914 5913 5913 5913 5913 5913 5912 5911 5910 5909 5909 5908 5908 5904 5900 5898 5896 5895 5894 5893 5892 5891 5891 5890 5889 5888 5887 5886 5886 5885 5884 5883 5883 5882 5881 5880 5879 5879 5878 5877 5877 5877 5877 5878
5914 5914 5915 5916 5915 5914 5914 5913 5913 5913 5913 5912 5912 5911 5909 5908 5907 5905 5902 5901 5899 5897 5894 5893 5893 5892 5892 5891 5890 5889 5888 5887 5886 5886 5885 5884 5883 5882 5882 5881 5880 5880 5879 5878 5877 5877 5877 5877 5878
5914 5914 5915 5915 5914 5914 5913 5912 5912 5913 5913 5913 5912 5910 5910 5908 5906 5905 5903 5901 5899 5897 5893 5891 5893 5893 5892 5891 5890 5889 5888 5887 5886 5886 5885 5884 5883 5882 5881 5881 5880 5879 5879 5878 5877 5877 5877 5877 5877
5913 5914 5915 5915 5913 5913 5912 5912 5912 5912 5913 5913 5912 5911 5909 5908 5906 5905 5903 5901 5899 5897 5895 5893 5893 5893 5892 5892 5890 5889 5888 5887 5886 5885 5885 5884 5883 5882 5881 5881 5880 5880 5879 5878 5878 5877 5877 5877 5877
5912 5913 5913 5913 5912 5912 5911 5911 5911 5912 5913 5912 5911 5910 5909 5909 5906 5904 5903 5901 5900 5898 5897 5895 5894 5893 5892 5892 5890 5889 5888 5887 5886 5885 5884 5883 5883 5882 5881 5880 5880 5879 5879 5878 5878 5877 5877 5877 5876
5911 5912 5913 5912 5912 5911 5911 5910 5910 5912 5912 5911 5911 5910 5909 5908 5906 5905 5903 5901 5900 5899 5898 5896 5895 5894 5893 5891 5890 5889 5888 5887 5886 5885 5884 5883 5882 5882 5881 5880 5879 5879 5879 5878 5877 5877 5877 5876 5876
5910 5911 5911 5911 5911 5911 5911 5910 5910 5911 5911 5911 5910 5909 5908 5907 5906 5905 5903 5902 5900 5899 5898 5897 5895 5894 5893 5891 5890 5889 5888 5887 5885 5884 5883 5882 5882 5881 5880 5880 5879 5879 5878 5878 5877 5877 5877 5877 5876
5908 5910 5910 5910 5910 5910 5909 5909 5909 5909 5910 5910 5909 5908 5907 5907 5906 5905 5903 5902 5901 5899 5898 5897 5896 5894 5893 5891 5890 5889 5888 5887 5885 5884 5883 5882 5881 5880 5880 5879 5879 5878 5878 5877 5877 5877 5876 5876 5876
5906 5908 5908 5909 5908 5909 5908 5907 5908 5908 5909 5908 5908 5907 5906 5906 5905 5904 5903 5902 5901 5899 5898 5897 5896 5894 5893 5892 5890 5889 5888 5887 5885 5884 5883 5882 5881 5880 5879 5879 5878 5877 5877 5877 5876 5876 5876 5876 5875
5904 5905 5907 5907 5906 5907 5907 5907 5907 5907 5907 5907 5906 5906 5905 5905 5904 5904 5903 5902 5901 5899 5898 5897 5896 5894 5893 5892 5890 5889 5888 5886 5885 5884 5883 5882 5881 5880 5879 5878 5877 5877 5876 5876 5876 5875 5875 5875 5874
5901 5902 5904 5904 5904 5905 5906 5906 5906 5905 5905 5905 5905 5904 5904 5903 5902 5902 5902 5901 5900 5899 5898 5897 5895 5894 5893 5892 5890 5889 5887 5886 5885 5884 5882 5881 5880 5879 5878 5877 5877 5876 5876 5875 5875 5875 5874 5874 5873
5898 5900 5900 5901 5902 5902 5903 5904 5904 5904 5904 5904 5903 5902 5902 5901 5901 5901 5900 5900 5899 5898 5897 5896 5895 5894 5893 5891 5890 5889 5887 5886 5885 5883 5882 5881 5880 5879 5878 5877 5876 5876 5875 5874 5874 5874 5873 5873 5872
5895 5897 5898 5899 5899 5900 5900 5901 5901 5902 5902 5901 5901 5900 5900 5900 5899 5899 5899 5898 5898 5897 5896 5895 5894 5893 5892 5891 5889 5888 5887 5886 5884 5883 5882 5880 5879 5878 5877 5876 5875 5875 5874 5874 5873 5873 5872 5872 5871
5892 5893 5894 5896 5896 5897 5898 5898 5899 5899 5899 5898 5898 5898 5898 5898 5898 5898 5897 5897 5896 5895 5894 5894 5893 5892 5891 5890 5888 5887 5886 5885 5884 5882 5881 5880 5879 5877 5876 5875 5874 5874 5873 5873 5872 5872 5871 5871 5870
5887 5889 5891 5892 5893 5894 5894 5895 5896 5896 5896 5896 5895 5895 5896 5896 5895 5895 5894 5894 5894 5893 5892 5891 5890 5890 5890 5889 5887 5886 5885 5884 5883 5881 5880 5879 5878 5877 5876 5875 5874 5873 5873 5872 5871 5871 5870 5869 5869
5883 5885 5887 5889 5890 5890 5891 5891 5893 5892 5893 5892 5892 5893 5893 5893 5892 5892 5891 5891 5891 5890 5890 5889 5888 5888 5888 5887 5886 5885 5884 5883 5882 5881 5879 5878 5877 5877 5875 5874 5873 5872 5872 5871 5870 5870 5869 5868 5867
5880 5881 5883 5885 5886 5886 5886 5886 5889 5889 5889 5889 5889 5889 5890 5889 5889 5889 5889 5888 5888 5888 5888 5887 5886 5886 5886 5885 5884 5883 5883 5882 5881 5880 5878 5877 5876 5875 5874 5873 5872 5871 5870 5870 5869 5868 5867 5866 5865
5876 5877 5878 5880 5881 5881 5881 5882 5884 5885 5885 5885 5886 5886 5886 5885 5886 5886 5886 5886 5886 5885 5885 5885 5884 5883 5883 5882 5882 5881 5881 5880 5879 5878 5877 5876 5875 5874 5872 5872 5871 5870 5869 5868 5867 5866 5865 5864 5863
5870 5872 5873 5875 5875 5875 5876 5877 5879 5879 5880 5881 5881 5882 5882 5882 5882 5883 5883 5883 5882 5882 5882 5882 5881 5881 5880 5879 5879 5879 5878 5878 5877 5876 5875 5874 5873 5872 5871 5870 5869 5868 5867 5866 5865 5864 5863 5862 5862
5864 5866 5867 5869 5870 5870 5871 5872 5873 5873 5875 5875 5876 5877 5877 5878 5878 5879 5879 5879 5879 5879 5879 5879 5878 5878 5877 5876 5876 5876 5876 5875 5874 5874 5873 5872 5871 5870 5869 5868 5867 5866 5865 5864 5863 5862 5861 5860 5860
5859 5860 5861 5862 5864 5865 5866 5866 5867 5868 5869 5869 5871 5871 5872 5873 5874 5874 5874 5874 5874 5875 5875 5875 5875 5875 5874 5874 5873 5873 5873 5872 5872 5871 5870 5870 5868 5867 5866 5866 5865 5863 5862 5861 5860 5859 5859 5858 5857
5852 5855 5855 5856 5857 5858 5860 5860 5862 5862 5863 5864 5865 5866 5866 5867 5868 5869 5869 5869 5869 5870 5870 5871 5871 5871 5870 5870 5869 5869 5869 5869 5869 5868 5867 5866 5866 5865 5864 5863 5862 5861 5860 5858 5857 5857 5856 5855 5854
5847 5848 5849 5850 5850 5852 5853 5853 5855 5856 5857 5858 5859 5859 5860 5861 5862 5863 5864 5864 5864 5865 5866 5866 5867 5866 5866 5866 5865 5865 5865 5865 5865 5864 5864 5863 5862 5861 5861 5860 5859 5858 5857 5856 5854 5854 5853 5852 5851
5841 5842 5843 5844 5844 5845 5847 5847 5848 5849 5850 5851 5852 5852 5853 5854 5856 5857 5858 5859 5860 5860 5861 5861 5861 5861 5861 5861 5860 5860 5861 5861 5861 5860 5860 5859 5858 5858 5857 5856 5855 5855 5853 5852 5851 5850 5850 5849 5847
5835 5836 5836 5837 5837 5838 5841 5840 5842 5844 5844 5845 5845 5846 5847 5848 5849 5851 5852 5853 5854 5855 5855 5855 5855 5856 5856 5855 5855 5855 5856 5856 5856 5856 5856 5855 5854 5853 5853 5852 5851 5851 5849 5848 5847 5846 5846 5845 5844
5828 5830 5830 5831 5831 5833 5834 5833 5836 5837 5838 5838 5839 5840 5841 5841 5842 5843 5845 5846 5847 5848 5849 5849 5849 5850 5850 5850 5849 5850 5851 5851 5851 5851 5851 5850 5850 5849 5848 5848 5847 5846 5845 5844 5843 5842 5841 5840 5840
5822 5823 5825 5825 5824 5825 5826 5827 5829 5829 5830 5831 5832 5833 5834 5835 5836 5837 5838 5839 5840 5841 5842 5842 5843 5844 5844 5844 5844 5844 5845 5845 5846 5846 5846 5845 5845 5844 5843 5843 5842 5841 5840 5840 5839 5838 5837 5836 5835
5816 5817 5818 5818 5817 5817 5819 5820 5822 5822 5822 5824 5825 5826 5827 5829 5829 5830 5831 5832 5832 5833 5834 5835 5837 5837 5838 5838 5838 5838 5839 5839 5840 5840 5840 5840 5840 5839 5838 5838 5837 5836 5836 5835 5834 5833 5832 5831 5830
5810 5811 5810 5811 5811 5811 5811 5815 5815 5815 5815 5816 5817 5818 5820 5821 5822 5823 5823 5824 5825 5825 5827 5828 5830 5831 5831 5831 5832 5832 5833 5833 5833 5834 5834 5834 5834 5833 5833 5832 5832 5831 5830 5830 5829 5828 5827 5826 5825
5802 5803 5804 5805 5804 5804 5804 5809 5807 5807 5807 5807 5808 5809 5811 5812 5814 5815 5816 5817 5818 5818 5819 5821 5822 5823 5824 5825 5825 5826 5827 5827 5827 5828 5828 5828 5828 5827 5827 5826 5826 5825 5825 5824 5823 5822 5821 5820 5819
Wind_Speed
6 5 4 5 5 5 5 7 8 11 11 11 10 10 10 11 11 11 11 10 10 10 9 8 7 7 7 8 8 7 7 6 5 5 5 5 4 4 3 3 3 3 2 2 1 1 2 2 3
6 5 5 5 5 5 4 6 9 11 12 12 11 10 11 11 11 11 11 11 11 10 9 7 7 7 7 7 8 7 7 6 5 5 5 5 4 4 3 3 3 3 2 2 2 2 1 2 2
6 6 5 5 4 4 3 5 8 9 12 12 12 11 10 11 11 11 11 11 11 11 10 7 7 7 7 7 8 7 6 6 5 5 5 5 4 3 3 3 3 2 2 1 1 2 2 2 2
7 7 6 5 4 4 2 5 7 8 10 11 12 11 10 10 11 11 10 11 11 11 10 8 7 7 7 7 7 7 6 5 5 5 4 4 4 4 4 3 3 2 2 1 0 0 1 2 2
9 8 6 5 2 2 2 4 6 8 10 11 12 11 10 10 11 10 10 11 11 11 10 9 8 7 7 7 7 7 6 5 5 5 4 4 4 4 4 3 3 2 2 2 2 1 0 0 2
10 9 7 4 1 0 2 4 6 8 11 11 12 11 10 11 11 10 10 10 10 10 10 9 8 7 7 8 7 7 6 6 5 5 4 4 4 5 4 4 3 2 3 3 2 1 0 0 0
10 10 8 5 3 2 2 3 4 9 12 12 12 11 10 11 11 11 10 10 10 10 10 9 8 8 8 8 8 7 6 6 6 5 5 5 5 4 4 3 2 2 2 2 2 2 1 1 1
12 11 8 6 6 4 3 2 4 8 11 13 12 12 11 10 11 11 10 9 9 9 9 8 9 9 8 8 8 8 7 7 7 6 5 5 4 4 3 3 3 3 2 2 2 1 1 1 2
13 12 9 6 7 7 6 3 4 8 10 12 13 13 11 10 10 10 9 9 8 8 8 7 8 8 8 8 8 8 8 7 7 6 6 5 5 5 4 4 4 3 3 3 3 2 2 2 3
14 12 9 8 9 10 9 7 8 9 10 12 13 13 13 12 10 10 9 8 8 7 7 7 7 8 8 8 8 8 8 7 6 6 6 5 5 5 5 4 4 3 4 4 4 3 3 3 3
15 13 11 11 11 12 12 10 11 12 12 13 14 14 14 11 9 9 8 8 8 7 7 6 6 7 8 8 8 8 8 7 6 6 6 6 5 5 5 4 3 3 4 4 4 4 4 3 3
15 14 14 14 13 14 13 13 13 14 14 14 14 14 13 13 11 10 9 7 7 7 7 6 6 7 7 8 8 7 8 7 6 7 7 6 6 5 5 4 4 4 5 5 4 4 4 4 4
16 15 15 15 15 14 12 12 13 14 14 14 14 14 12 12 12 9 7 7 7 7 7 7 7 7 7 7 7 7 7 7 7 7 7 7 6 5 5 4 3 4 4 4 4 5 4 5 5
17 17 16 15 15 14 13 13 13 13 14 15 14 14 13 13 14 12 10 9 9 8 8 7 7 7 7 7 7 7 7 7 7 7 7 6 6 6 6 5 4 4 4 4 4 5 5 6 6
19 18 17 16 16 15 16 16 15 14 14 15 15 16 16 16 15 13 12 11 10 10 9 8 7 7 7 7 7 7 7 7 7 6 6 6 6 7 7 6 5 5 4 5 5 5 6 7 7
19 19 18 16 17 18 19 18 16 16 16 16 16 17 18 17 16 14 13 12 11 10 10 9 8 8 7 7 7 7 7 7 7 7 6 7 6 7 7 7 7 6 5 5 5 6 6 7 8
18 18 16 15 16 18 20 20 18 18 17 16 18 19 19 18 17 16 13 13 12 10 10 10 9 9 8 8 8 8 8 8 7 7 7 7 7 7 7 8 8 8 7 7 7 7 8 8 8
18 18 17 16 15 17 19 20 19 18 18 18 20 20 19 18 18 17 15 14 13 12 11 11 10 10 9 9 9 9 9 9 8 8 8 8 8 8 8 8 9 9 8 8 8 8 8 8 8
20 20 20 18 17 19 20 21 20 19 19 19 20 20 19 18 18 18 17 16 15 14 13 12 11 11 10 10 10 10 10 9 9 9 9 9 9 9 8 9 9 9 10 9 9 9 9 9 8
22 23 22 20 19 20 21 21 21 21 20 19 20 20 20 20 19 19 19 18 17 16 15 14 13 12 12 11 11 11 11 10 10 10 10 10 10 10 9 9 9 10 10 10 10 9 9 10 10
24 24 22 21 20 21 22 22 22 22 22 21 20 19 20 20 21 20 20 19 18 17 16 15 14 14 14 14 13 13 12 12 12 12 11 11 11 11 11 10 10 11 11 10 10 10 10 10 10
25 23 23 22 23 22 22 24 22 22 22 22 21 21 20 20 21 21 20 20 20 18 18 17 16 16 16 15 15 14 13 13 13 13 12 12 12 12 12 11 12 12 11 11 11 11 11 10 11
24 23 23 23 24 25 24 26 24 23 23 22 22 21 21 19 20 21 21 20 20 20 20 19 18 17 17 17 16 16 15 14 14 14 13 13 13 13 13 13 13 12 12 12 12 12 12 11 11
23 24 24 24 26 27 25 27 26 25 25 24 25 24 23 22 21 21 21 21 21 22 21 20 19 18 18 18 18 17 16 15 15 15 15 15 15 14 14 14 13 13 13 13 13 13 13 13 12
23 24 24 26 27 29 28 30 29 26 25 25 25 25 25 24 23 22 22 22 22 22 22 21 19 19 19 19 19 18 17 16 16 17 16 16 16 16 15 15 14 14 14 14 14 14 14 13 13
22 23 25 26 26 26 28 31 29 27 27 27 26 25 26 25 23 23 22 23 24 23 22 21 20 19 19 20 19 19 19 18 18 18 18 17 17 17 17 16 16 16 16 16 15 15 15 15 15
22 23 24 26 26 27 28 28 27 27 27 26 26 26 27 25 24 24 24 25 25 24 23 22 21 21 21 20 20 20 20 19 19 20 19 19 19 19 18 17 17 16 17 17 17 17 17 17 16
25 24 24 27 28 29 28 27 27 25 27 27 27 28 28 27 26 25 25 25 25 25 24 23 22 22 22 21 20 21 21 21 20 20 20 20 20 20 19 18 18 18 18 17 18 18 18 18 18
23 24 26 27 29 30 29 27 26 26 27 27 28 30 29 28 25 24 24 24 24 24 23 24 24 24 23 23 22 21 22 22 22 21 21 21 21 21 20 19 20 20 20 19 19 19 19 19 19
23 24 26 28 29 30 30 28 26 26 27 27 27 29 30 30 28 27 25 24 24 25 25 25 26 26 24 24 24 23 23 23 22 22 22 22 22 22 21 21 21 21 21 21 21 20 20 21 21
Wind_Direction
156 141 124 111 104 95 66 40 30 21 10 2 357 359 6 4 4 5 6 7 12 16 16 14 16 15 11 8 7 7 10 11 10 9 8 4 0 359 359 350 339 331 324 286 225 176 175 188 199
174 167 150 124 111 97 63 35 22 10 8 359 355 360 3 5 6 6 8 11 15 17 13 10 16 17 13 8 4 4 3 5 6 4 2 358 353 355 353 349 348 337 311 274 219 207 188 199 216
189 188 170 150 127 95 64 32 21 7 1 354 351 357 358 2 6 10 10 11 13 15 16 19 20 18 14 8 2 2 3 4 2 358 357 355 349 344 342 341 347 341 315 313 177 229 223 224 215
200 201 188 156 135 112 79 24 5 356 349 348 348 350 352 358 3 7 7 10 12 15 20 25 21 15 14 11 5 2 2 3 0 352 352 350 343 333 325 332 340 334 311 330 41 96 211 226 233
211 216 210 167 150 138 66 21 2 347 338 341 345 342 348 356 2 4 6 8 12 13 17 21 19 15 15 10 9 3 3 3 358 350 352 349 341 330 314 314 327 316 303 307 288 297 235 209 201
221 224 219 195 148 306 9 359 342 331 331 334 336 336 345 355 359 1 3 6 8 10 13 17 18 14 12 9 7 4 1 359 356 350 344 339 329 322 316 314 309 301 291 284 262 240 328 56 343
223 222 218 210 184 209 327 340 316 316 323 323 329 333 340 352 357 358 2 3 7 10 12 15 17 16 15 11 8 5 0 357 1 356 347 339 328 323 320 321 313 303 281 261 240 234 350 4 312
222 225 219 208 197 201 241 279 299 307 311 315 319 327 331 343 351 352 356 2 7 7 9 13 13 12 14 11 7 3 358 354 358 358 350 342 338 334 329 325 316 298 289 276 284 303 333 318 294
224 225 219 206 203 219 231 247 267 283 299 307 312 321 324 335 344 347 351 358 4 7 8 11 13 8 9 8 8 3 357 352 352 352 353 357 353 346 336 325 315 302 289 282 282 286 297 297 293
225 217 218 222 222 227 239 250 261 266 281 292 302 312 321 325 331 339 344 349 355 2 7 8 10 8 4 2 3 359 356 350 347 347 353 355 353 348 339 327 320 298 283 277 275 278 282 289 294
225 221 220 228 234 236 243 251 260 270 278 286 296 302 310 316 323 329 335 338 345 356 360 358 1 356 356 358 359 357 355 351 354 356 354 353 349 343 338 328 320 305 292 277 270 269 272 285 294
229 229 229 230 236 246 251 253 255 266 277 286 294 297 302 304 310 319 322 325 336 345 348 349 350 349 350 354 354 354 353 351 354 351 350 349 345 346 341 336 331 320 309 296 275 270 277 283 288
231 234 236 239 244 250 254 248 250 260 269 277 287 295 300 303 305 311 319 323 327 331 332 335 337 340 343 345 346 348 350 348 343 343 350 352 350 345 342 342 337 324 312 297 283 276 279 291 293
232 238 241 241 247 254 254 252 253 256 263 273 283 290 295 297 297 299 301 305 314 314 315 316 325 329 333 335 336 340 344 345 338 337 342 351 356 351 343 339 335 324 315 301 292 287 283 287 289
231 237 242 241 242 250 255 253 258 259 261 268 278 285 290 292 292 294 298 298 304 305 300 303 308 314 321 327 330 332 334 335 337 332 337 341 344 348 346 338 332 325 316 313 303 296 294 291 290
235 238 238 236 243 249 256 258 257 260 263 268 274 279 282 286 290 297 297 298 302 303 302 298 298 302 308 320 322 321 321 322 331 333 333 332 327 327 334 334 329 319 312 309 303 290 294 297 292
240 240 239 239 245 253 259 260 257 259 262 265 273 276 278 281 285 291 295 297 296 295 302 302 295 298 302 309 314 313 312 314 318 324 327 326 322 315 314 315 316 314 308 303 296 290 291 293 292
244 242 240 239 247 256 262 261 259 260 262 266 269 272 275 280 279 283 288 290 290 287 296 300 294 287 291 298 304 304 304 304 304 311 318 317 316 313 306 305 308 307 303 299 295 295 293 290 288
242 242 244 245 248 253 255 259 263 260 261 264 265 266 266 271 274 277 281 283 283 285 288 291 289 283 285 290 295 296 296 295 293 296 304 310 311 310 305 300 303 301 297 294 291 290 291 290 287
242 246 249 249 250 253 253 255 259 262 263 264 267 266 267 270 270 274 277 279 280 282 284 286 282 285 282 284 285 286 287 288 288 291 296 300 303 303 303 303 303 304 299 296 294 288 288 286 282
244 246 247 251 251 251 253 255 255 256 258 263 268 267 268 270 271 272 273 274 275 277 280 280 279 278 280 283 281 279 279 279 280 286 288 290 295 298 299 297 298 300 299 294 292 289 290 288 286
244 244 246 248 249 251 253 257 256 255 255 261 265 266 269 269 269 269 269 269 270 271 274 276 277 275 276 280 278 276 276 274 276 281 282 285 289 293 293 293 297 296 295 292 289 288 291 295 292
245 244 245 245 247 248 249 254 254 255 257 259 262 266 266 266 266 268 266 266 267 270 271 271 272 273 275 277 277 273 272 272 273 276 277 282 287 291 290 289 293 292 290 289 287 286 288 290 289
247 245 244 244 245 247 248 252 253 255 260 261 262 262 265 267 267 267 265 266 267 267 268 266 269 270 272 274 275 272 269 270 272 273 274 279 283 286 287 287 288 287 286 286 284 284 286 289 286
246 247 249 247 246 247 247 251 253 255 257 260 261 261 263 267 268 265 265 266 267 265 265 264 266 268 269 272 271 269 268 269 272 273 273 277 280 282 284 285 286 286 286 286 285 285 286 286 284
247 249 252 254 254 252 249 253 256 255 257 257 259 261 263 266 268 266 264 264 266 262 261 261 263 264 266 269 268 265 266 269 271 271 272 275 278 280 283 284 285 285 285 285 285 283 283 282 282
247 250 255 257 259 258 255 255 254 257 258 259 260 260 261 264 269 265 262 261 262 261 260 259 261 262 264 266 265 263 266 266 269 270 271 273 278 279 281 282 284 284 283 283 282 281 280 279 279
248 251 253 255 258 259 258 256 255 260 258 257 257 258 261 264 266 262 262 261 261 260 261 261 261 262 262 265 266 264 265 266 266 269 270 272 275 279 279 279 280 282 282 282 281 279 278 277 279
245 247 249 254 257 259 260 261 261 265 266 264 262 260 261 264 259 261 260 259 262 261 260 262 262 262 262 264 267 267 266 266 266 269 269 270 272 275 277 278 280 280 280 281 282 280 278 279 279
246 247 249 251 255 257 260 263 262 263 263 263 262 261 260 261 260 261 262 262 262 261 260 259 261 263 262 262 264 266 267 266 267 270 271 270 271 273 275 277 278 278 279 280 280 279 280 281 280